ARIANE 2 DEB, 33548

Orbit data source: Space-Track

ARIANE 2 DEB, 33548 is space debris in HEO originally from a launch on Fri, 27 Jan 1989 UTC launched from the French Guiana (FRGUI). Debris objects in space refer to the collection of defunct objects orbiting the Earth. Examples of debris include non-operational satellites, rocket bodies, and fragments generated from explosions, collisions, or faulty payload assembly.

Loading next visibility...
Identifier
33548, 1989-006AQ
Orbit
HEO
Country
Flag of FRFR
Related business
Manufacturer
EADS/LV
Mission
Spacecraft
Bus & Motor
Unknown
Mass
Unknown
Launch date (UTC)
1989-01-27 (37 years ago)
Launch vehicle
Unknown
Launch site
French Guiana (FRGUI)
Object type
Payload
Rocket body
Debris
Shape & HBR
Unknown shape, 0.2 m
Radar Cross Section
Medium (>0.1 m² and <1 m²)

Expand to show TLE details & history
Last TLE update: 2 days ago

TLE from 2 days ago
0 ARIANE 2 DEB
1 33548U 89006AQ  25290.26163584 -.00000128  00000-0  00000-0 0  9991
2 33548   9.8504  65.7607 6934399  95.7800 340.4168  2.22369926162572
Epoch: 2025-10-17T06:16Z
TLE epoch observation values (Epoch: 2025-10-17T06:16:45.336Z)
Latitude
0.00017°
Longitude
-54.39656°
Altitude
7,455.205 km
Speed
6.446 km/s
True Right ascension
04h 23m 12s
True Declination
0° 00' 01"
Sunlit
Object was in daylight at epoch
Visualization orbit readout
Latitude
Unknown
Longitude
Unknown
Altitude
Unknown
Speed
Unknown
Apparent Right ascension
Unknown
Apparent Declination
Unknown
Sunlit
N/A
Visualization observer readout
Local Sidereal Time
07:46:12
Azimuth
Unknown
Elevation
Unknown
Doppler factor
Unknown
Orbital elements
Apogee altitude
35,617.167 km
Perigee altitude
1,224.19 km
Semi-major axis
24,798.816 km
Eccentricity
0.69344
Inclination
9.8504°
RAAN
65.7607°
Arg. of periapsis
95.78°
True anomaly
264.71198°
Mean anomaly
340.4168°
Eccentric anomaly
309.96564°
Mean motion
0.55577 °/min
Orbital period
647.75 mins
BSTAR
0
Loading maneuver chart data...
Computing Atmospheric mass density...
Loading historical data...
Loading historical data...
Loading historical data...
Loading historical data...
Loading historical data...
Loading historical data...
Loading historical data...

Documentation

Showing up to 5 results
|